Location: Llanfihangel-Ystrad
(52.1833°N, 4.1667°W)
Time: 10:18:31
(UTC+00:00)

STARLINK-1127 - Pass Details

Date: 17 February 2020
Orbit: 379 x 380 km, 53.0° (Epoch: 30 March)

Event Time Altitude Azimuth Distance (km) Brightness Sun altitude
Exits shadow 05:01:43 39° 76° (ENE) 599 4.3 -23.2°
Drops below altitude 10° 05:03:51 10° 79° (ENE) 1,417 6.8 -22.9°
Enters shadow 05:57:44 -72° 270° (W) 12,553 10.5 -14.6°
Maximum altitude 06:36:38 83° 10° (N) 395 2.9 -8.7°
